Home > Weather > Tau > Past weeks

Flag for Norway Past Weather in Tau, Norway — Yesterday and Last 2 Weeks

Now
61 °F

Passing clouds.


Feels Like: 61 °F
Forecast: 51 / 56 °F
Wind: 9 mph from Northwest

Location: Stavanger / Sola

Current Time: Jun 25, 2016 at 7:55:57 PM

Latest Report: Jun 25, 2016 at 6:50 PM


Visibility: N/A

Pressure: 30.01 "Hg

Humidity: 83%

Dew Point: 55 °F

Location of TauLocation

Past Weather in Tau — Graph

°F

Tau Temperature Yesterday

Maximum temperature yesterday: 63 °F (at 1:50 PM)
Minimum temperature yesterday: 59 °F (at 4:50 PM)
Average temperature yesterday: 60 °F

High & Low Weather Summary for the Past Weeks

 TemperatureHumidityPressure
High70 °F (Jun 23, 2:50 PM)100% (Jun 17, 1:50 AM)30.12 "Hg (Jun 17, 1:50 AM)
Low45 °F (Jun 11, 3:50 AM)35% (Jun 13, 10:50 AM)29.53 "Hg (Jun 15, 3:50 AM)
Average59 °F77%29.84 "Hg
* Reported Jun 10 6:20 PM — Jun 25 6:20 PM, Tau, Weather by CustomWeather, © 2016

Note: Actual official high and low records may vary slightly from our data, if they occured in-between our weather recording intervals... More about our weather records

Advertising

Tau Weather History for the Previous 24 Hours

Scroll right to see more
 ConditionsComfort  
Time TempWeatherWind HumidityBarometerVisibility
6:20 PM
Sat, Jun 25
61 °FPassing clouds.10 mph83%30.01 "HgN/A
5:50 PM61 °FPassing clouds.10 mph77%30.01 "HgN/A
5:20 PM63 °FPassing clouds.12 mph77%30.01 "HgN/A
4:50 PM63 °FPassing clouds.10 mph77%30.01 "HgN/A
4:20 PM64 °FPassing clouds.10 mph73%30.04 "HgN/A
3:50 PM64 °FPartly sunny.10 mph73%30.04 "HgN/A
3:20 PM64 °FScattered clouds.9 mph78%30.04 "HgN/A
2:50 PM64 °FPassing clouds.9 mph73%30.04 "HgN/A
2:20 PM64 °FPassing clouds.10 mph73%30.04 "HgN/A
1:50 PM63 °FScattered clouds.10 mph77%30.04 "HgN/A
1:20 PM63 °FScattered clouds.12 mph77%30.04 "HgN/A
12:50 PM63 °FScattered clouds.9 mph77%30.04 "HgN/A
12:20 PM61 °FPartly sunny.8 mph83%30.07 "HgN/A
11:50 AM59 °FBroken clouds.10 mph88%30.07 "HgN/A
11:20 AM61 °FBroken clouds.9 mph83%30.07 "HgN/A
10:50 AM61 °FPartly sunny.7 mph88%30.04 "HgN/A
10:20 AM61 °FPartly sunny.2 mph88%30.04 "HgN/A
9:50 AM59 °FBroken clouds.1 mph88%30.04 "HgN/A
9:20 AM57 °FBroken clouds.6 mph94%30.04 "HgN/A
8:50 AM57 °FBroken clouds.5 mph94%30.04 "HgN/A
8:20 AM57 °FBroken clouds.3 mph94%30.04 "HgN/A
7:50 AM57 °FBroken clouds.2 mph94%30.04 "HgN/A
7:20 AM57 °FBroken clouds.2 mph94%30.04 "HgN/A
6:50 AM55 °FPartly sunny.2 mph100%30.04 "HgN/A
6:20 AM55 °FBroken clouds.3 mph100%30.04 "Hg4 mi
5:50 AM55 °FFog.No wind100%30.04 "Hg2 mi
4:50 AM55 °FFog.2 mph100%30.01 "Hg1 mi
3:50 AM57 °FDrizzle. Fog.2 mph94%30.01 "Hg1 mi
2:50 AM57 °FFog.3 mph94%30.01 "Hg1 mi
1:50 AM57 °FDense fog.5 mph94%30.04 "Hg1 mi
12:50 AM57 °FFog.5 mph94%30.04 "Hg1 mi
12:20 AM57 °FFog.7 mph94%30.04 "Hg3 mi
11:50 PM
Fri, Jun 24
59 °FMostly cloudy.6 mph94%30.01 "Hg6 mi
11:20 PM59 °FBroken clouds.5 mph94%30.01 "Hg6 mi
10:50 PM59 °FBroken clouds.3 mph94%30.01 "HgN/A
10:20 PM59 °FBroken clouds.2 mph94%29.98 "HgN/A
9:50 PM59 °FBroken clouds.2 mph94%29.98 "HgN/A
9:20 PM59 °FBroken clouds.7 mph94%29.98 "Hg6 mi
8:50 PM59 °FBroken clouds.8 mph94%29.98 "Hg5 mi
8:20 PM59 °FPartly sunny.9 mph94%29.95 "Hg5 mi
7:50 PM59 °FLow clouds.8 mph94%29.95 "HgN/A
7:20 PM59 °FLow clouds.8 mph94%29.92 "Hg5 mi
Weather by CustomWeather, © 2016

See weather overviewHow to use our weather pages